Location: Ballingbuur
(53.0000°N, 5.7667°E)
Time: 16:25:48
(UTC+00:00)

N. Korean satellite - Visible Passes

Search period start: 08 March 2021 00:00
Search period end: 18 March 2021 00:00
Orbit: 451 x 502 km, 97.2° (Epoch: 07 March)

Date Brightness Start Highest point End Pass type
(mag) Time Alt. Az. Time Alt. Az. Time Alt. Az.
08 Mar 8.2 04:43:16 10° NNE 04:46:37 37° E 04:49:58 10° SSE visible
09 Mar 9.4 04:16:57 10° NE 04:19:40 20° E 04:22:24 10° SE visible
10 Mar 10.1 03:51:33 10° ENE 03:52:37 11° E 03:53:41 10° ESE visible
10 Mar 6.5 05:22:49 10° NNE 05:26:24 80° WNW 05:30:01 10° SSW visible
11 Mar 7.5 04:56:04 10° NNE 04:59:35 51° E 05:03:08 10° S visible
12 Mar 8.9 04:29:33 10° NE 04:32:41 27° E 04:35:49 10° SSE visible
13 Mar 9.8 04:03:29 10° NE 04:05:39 15° E 04:07:49 10° SE visible
14 Mar 6.9 05:08:52 10° NNE 05:12:30 73° ESE 05:16:09 10° S visible
15 Mar 8.3 04:42:12 10° NNE 04:45:36 37° E 04:49:01 10° SSE visible
16 Mar 9.5 04:15:51 10° NE 04:18:37 20° E 04:21:23 10° SE visible
17 Mar 10.1 03:50:23 10° ENE 03:51:32 11° E 03:52:39 10° ESE visible
